Home   Weather   Spain   Huelva   Past weeks
Flag for Spain

Past Weather in Huelva, Huelva, Spain — Yesterday and Last 2 Weeks

Currently: 48 °F. Passing clouds. (Weather station: Rota Airport, Spain). See more current weather

Past Weather in Huelva — Graph

°F

Huelva Temperature Yesterday

Maximum temperature yesterday: 64 °F (at 2:00 pm)
Minimum temperature yesterday: 50 °F (at 11:30 pm)
Average temperature yesterday: 58 °F

High & Low Weather Summary for the Past Weeks

 TemperatureHumidityPressure
High73 °F (Nov 26, 4:00 pm)100% (Nov 14, 2:30 am)30.36 "Hg (Nov 14, 2:30 am)
Low46 °F (Nov 27, 7:30 am)37% (Nov 28, 2:30 pm)29.98 "Hg (Nov 16, 5:00 am)
Average62 °F80%30.17 "Hg
* Reported Nov 14 12:00 am — Nov 29 12:30 am, Huelva. Weather by CustomWeather, © 2022

Note: Actual official high and low records may vary slightly from our data, if they occured in-between our weather recording intervals... More about our weather records

Huelva Weather History for the Previous 24 Hours

Scroll right to see more
 ConditionsComfort  
Time TempWeatherWind HumidityBarometerVisibility
12:30 am
Tue, Nov 29
48 °FPassing clouds.6 mph71%30.21 "HgN/A
12:00 am50 °FClear.7 mph67%30.24 "Hg10 mi
11:30 pm
Mon, Nov 28
50 °FPassing clouds.6 mph67%30.24 "HgN/A
11:00 pm52 °FClear.9 mph62%30.24 "Hg10 mi
10:30 pm52 °FClear.6 mph62%30.24 "Hg10 mi
10:00 pm52 °FPassing clouds.7 mph62%30.24 "HgN/A
9:30 pm54 °FClear.8 mph58%30.24 "Hg10 mi
9:00 pm54 °FPassing clouds.7 mph58%30.24 "HgN/A
8:30 pm55 °FPassing clouds.6 mph55%30.24 "HgN/A
8:00 pm57 °FPassing clouds.6 mph55%30.21 "HgN/A
7:30 pm59 °FClear.8 mph63%30.21 "Hg10 mi
7:00 pm59 °FClear.7 mph68%30.21 "Hg10 mi
6:30 pm61 °FClear.7 mph63%30.21 "Hg10 mi
6:00 pm63 °FSunny.6 mph56%30.21 "Hg10 mi
5:30 pm63 °FPassing clouds.8 mph56%30.21 "HgN/A
5:00 pm63 °FPassing clouds.9 mph56%30.21 "HgN/A
4:30 pm63 °FPassing clouds.10 mph56%30.21 "HgN/A
4:00 pm63 °FPassing clouds.8 mph59%30.21 "HgN/A
3:30 pm64 °FSunny.10 mph52%30.21 "Hg10 mi
3:00 pm64 °FPassing clouds.10 mph56%30.21 "HgN/A
2:30 pm64 °FPassing clouds.13 mph37%30.24 "HgN/A
2:00 pm64 °FPassing clouds.10 mph40%30.24 "HgN/A
1:30 pm63 °FPassing clouds.14 mph52%30.27 "HgN/A
1:00 pm63 °FPassing clouds.12 mph45%30.27 "HgN/A
12:30 pm61 °FPassing clouds.14 mph48%30.30 "HgN/A
11:30 am61 °FPassing clouds.14 mph52%30.30 "HgN/A
11:00 am59 °FPassing clouds.9 mph59%30.30 "HgN/A
10:30 am59 °FPassing clouds.9 mph63%30.30 "HgN/A
10:00 am57 °FPassing clouds.8 mph67%30.30 "HgN/A
9:30 am55 °FPassing clouds.8 mph72%30.27 "HgN/A
9:00 am54 °FPassing clouds.6 mph77%30.27 "HgN/A
8:30 am54 °FSunny.9 mph77%30.27 "Hg10 mi
8:00 am55 °FPassing clouds.10 mph72%30.24 "HgN/A
7:30 am55 °FPassing clouds.8 mph77%30.24 "HgN/A
7:00 am57 °FClear.12 mph77%30.24 "Hg10 mi
6:30 am57 °FPassing clouds.9 mph82%30.24 "HgN/A
6:00 am57 °FClear.13 mph88%30.21 "Hg10 mi
5:30 am57 °FPassing clouds.10 mph94%30.24 "HgN/A
5:00 am57 °FClear.10 mph88%30.21 "Hg10 mi
4:30 am57 °FPassing clouds.10 mph88%30.24 "HgN/A
4:00 am59 °FPassing clouds.9 mph88%30.24 "HgN/A
3:00 am59 °FPassing clouds.9 mph88%30.21 "HgN/A
2:30 am59 °FPassing clouds.10 mph88%30.21 "HgN/A
2:00 am59 °FPassing clouds.9 mph82%30.21 "HgN/A
Weather by CustomWeather, © 2022

See weather overview